Quantico, VA

4:09 PM EST on December 14, 2019 (GMT -0500)
Quantico Marine Corps Air Facility

Weather History for KNYG - November, 2019

Change the Weather History Date:

Wednesday, November 13, 2019

  Actual Average Record
Temperature  
Mean Temperature 30 °F -  
Max Temperature 37 °F 54 °F 68 °F (2005)
Min Temperature 24 °F 36 °F 24 °F (2019)
Degree Days  
Heating Degree Days 34    
Moisture  
Dew Point 14 °F    
Average Humidity 50    
Maximum Humidity 75    
Minimum Humidity 30    
Precipitation  
Precipitation 0.00 in - - ()
Sea Level Pressure  
Sea Level Pressure 30.43 in    
Wind  
Wind Speed 8 mph (NW)    
Max Wind Speed 16 mph    
Max Gust Speed 24 mph    
Visibility 10 miles    
Events      
Averages and records for this station are not official NWS values.
T = Trace of Precipitation, MM = Missing Value Source: NWS Daily Summary

Daily Weather History Graph

Daily Weather History Graph

Search for Another Location

Airport or City:

Astronomy

Nov. 13, 2019 Rise Set
Actual Time 6:48 AM EST 4:57 PM EST
Civil Twilight 6:20 AM EST 5:26 PM EST
Nautical Twilight 5:48 AM EST 5:58 PM EST
Astronomical Twilight 5:17 AM EST 6:29 PM EST
Moon 6:00 PM EST (11/13) 7:39 AM EST (11/13)
Length of Visible Light 11h 05m
Length of Day
10h 09m
Full, 99% of the Moon is Illuminated
Nov 13
Full
Nov 19
Last Quarter
Nov 26
New
Dec 4
First Quarter
Dec 12
Full

Hourly Weather History & Observations

Time (EST) Temp. Windchill Dew Point Humidity Pressure Visibility Wind Dir Wind Speed Gust Speed Precip Events Conditions
12:56 AM 28.9 °F 19.8 °F 18.0 °F 64% 30.33 in 10.0 mi NW 10.4 mph - N/A   Clear
1:56 AM 28.9 °F 19.8 °F 12.0 °F 49% 30.35 in 10.0 mi NNW 10.4 mph - N/A   Clear
2:56 AM 28.0 °F 20.8 °F 10.0 °F 47% 30.36 in 10.0 mi NNW 6.9 mph - N/A   Clear
3:56 AM 27.0 °F 17.3 °F 10.9 °F 51% 30.38 in 10.0 mi NNW 10.4 mph - N/A   Clear
4:56 AM 26.1 °F 17.6 °F 12.0 °F 55% 30.40 in 10.0 mi NNW 8.1 mph - N/A   Clear
5:56 AM 25.0 °F 19.3 °F 12.9 °F 60% 30.42 in 10.0 mi WNW 4.6 mph - N/A   Clear
6:56 AM 24.1 °F 15.2 °F 12.9 °F 62% 30.44 in 10.0 mi NW 8.1 mph - N/A   Clear
7:56 AM 27.0 °F 16.7 °F 12.9 °F 56% 30.46 in 10.0 mi NW 11.5 mph - N/A   Partly Cloudy
8:56 AM 30.0 °F 21.7 °F 12.9 °F 49% 30.48 in 10.0 mi NNW 9.2 mph - N/A   Clear
9:56 AM 32.0 °F 21.2 °F 10.9 °F 42% 30.49 in 10.0 mi NW 16.1 mph 24.2 mph N/A   Clear
10:56 AM 34.0 °F 27.2 °F 10.0 °F 37% 30.49 in 10.0 mi NW 8.1 mph - N/A   Clear
11:56 AM 35.1 °F 32.2 °F 10.0 °F 35% 30.47 in 10.0 mi Variable 3.5 mph - N/A   Partly Cloudy
12:56 PM 37.0 °F 30.4 °F 10.9 °F 34% 30.44 in 10.0 mi NNE 9.2 mph - N/A   Partly Cloudy
1:56 PM 37.9 °F - 10.0 °F 32% 30.44 in 10.0 mi Calm Calm - N/A   Partly Cloudy
2:56 PM 37.9 °F 35.5 °F 9.0 °F 30% 30.42 in 10.0 mi Variable 3.5 mph - N/A   Mostly Cloudy
3:56 PM 37.0 °F - 9.0 °F 31% 30.42 in 10.0 mi Calm Calm - N/A   Mostly Cloudy
4:56 PM 36.0 °F 33.3 °F 10.9 °F 36% 30.43 in 10.0 mi SW 3.5 mph - N/A   Scattered Clouds
5:56 PM 33.1 °F 30.0 °F 19.0 °F 56% 30.43 in 10.0 mi West 3.5 mph - N/A   Clear
6:56 PM 30.9 °F 24.3 °F 19.9 °F 64% 30.44 in 10.0 mi West 6.9 mph - N/A   Clear
7:56 PM 30.9 °F 25.2 °F 21.0 °F 67% 30.46 in 10.0 mi West 5.8 mph - N/A   Clear
8:56 PM 32.0 °F 28.7 °F 19.9 °F 61% 30.45 in 10.0 mi Variable 3.5 mph - N/A   Clear
9:56 PM 28.0 °F 21.7 °F 21.0 °F 75% 30.47 in 10.0 mi West 5.8 mph - N/A   Clear
10:56 PM 33.1 °F 27.7 °F 18.0 °F 54% 30.45 in 10.0 mi SW 5.8 mph - N/A   Clear
11:56 PM 32.0 °F 27.5 °F 15.1 °F 50% 30.45 in 10.0 mi SW 4.6 mph - N/A   Clear